period_start,C,m1,H,J0,J1,J2,J3,J4,J5,JA,JB,JC,JD,JJ,JK,JN,#
2018-04-10 00:00:54,0.04,0.13,0.00,24.27,28.10,31.11,14.18,48.23,1027.87,2022.84,3355.31,3050.84,3508.22,600.20,600.35,2.38,0000 0000 0000 0000 000000
2018-04-10 00:05:56,0.05,0.14,0.00,24.30,28.10,31.13,14.05,48.29,1027.88,2022.79,3354.04,3050.03,3507.31,600.12,600.18,2.43,0000 0000 0000 0000 000000
2018-04-10 00:10:57,0.07,0.14,0.00,24.32,28.11,31.12,14.01,48.32,1027.87,2022.88,3352.82,3049.21,3506.40,600.03,599.96,2.48,0000 0000 0000 0000 000000
2018-04-10 00:15:58,0.04,0.14,0.00,24.35,28.12,31.12,14.03,48.33,1027.87,2022.80,3351.68,3048.37,3505.39,599.86,599.73,2.53,0000 0000 0000 0000 000000
2018-04-10 00:20:59,0.05,0.14,0.00,24.38,28.12,31.14,14.01,48.27,1027.86,2022.69,3350.46,3047.55,3504.35,599.84,599.62,2.58,0000 0000 0000 0000 000000
2018-04-10 00:26:01,0.05,0.15,0.00,24.41,28.12,31.13,14.04,48.24,1027.88,2022.68,3349.21,3046.62,3503.41,600.06,599.82,2.63,0000 0000 0000 0000 000000
2018-04-10 00:31:02,0.05,0.15,0.00,24.43,28.14,31.15,14.07,48.27,1027.92,2022.71,3348.00,3045.88,3502.41,600.26,600.03,2.68,0000 0000 0000 0000 000000
2018-04-10 00:36:04,0.02,0.15,0.00,24.47,28.15,31.15,13.91,48.17,1027.89,2022.57,3346.96,3045.00,3501.39,599.58,599.30,2.73,0000 0000 0000 0000 000000
2018-04-10 00:41:05,0.04,0.15,0.00,24.50,28.17,31.16,14.02,48.18,1027.89,2022.22,3345.87,3044.14,3500.22,600.04,599.50,2.78,0000 0000 0000 0000 000000
2018-04-10 00:46:06,0.05,0.16,0.00,24.53,28.17,31.18,14.01,48.19,1027.89,2022.10,3344.58,3043.24,3499.22,600.14,599.63,2.83,0000 0000 0000 0000 000000
2018-04-10 00:51:07,0.05,0.16,0.00,24.56,28.20,31.19,14.04,48.13,1027.88,2022.05,3343.43,3042.39,3498.11,599.70,599.25,2.88,0000 0000 0000 0000 000000
2018-04-10 00:56:08,0.05,0.16,0.00,24.61,28.22,31.20,14.01,48.07,1027.86,2022.02,3342.24,3041.45,3497.03,599.95,599.27,2.93,0000 0000 0000 0000 000000
2018-04-10 01:01:10,0.06,0.16,0.00,24.65,28.24,31.22,14.02,48.18,1027.89,2022.01,3340.86,3040.51,3495.89,599.88,599.17,2.98,0000 0000 0000 0000 000000
2018-04-10 01:06:11,0.06,0.17,0.00,24.68,28.26,31.23,14.04,48.15,1027.88,2022.00,3339.59,3039.66,3494.79,599.97,599.18,3.03,0000 0000 0000 0000 000000
2018-04-10 01:11:12,0.06,0.17,0.00,24.72,28.29,31.25,13.96,48.17,1027.88,2022.00,3338.28,3038.58,3493.64,599.92,599.08,3.08,0000 0000 0000 0000 000000
2018-04-10 01:16:14,0.06,0.17,0.00,24.77,28.31,31.28,14.03,48.12,1027.98,2022.00,3336.81,3037.61,3492.59,600.09,599.20,3.13,0000 0000 0000 0000 000000
2018-04-10 01:21:15,0.06,0.18,0.00,24.82,28.34,31.29,14.03,48.25,1027.98,2021.99,3335.33,3036.46,3491.32,599.87,598.77,3.18,0000 0000 0000 0000 000000
2018-04-10 01:26:16,0.07,0.18,0.00,24.86,28.37,31.33,14.05,48.33,1027.97,2021.98,3333.65,3035.34,3489.94,600.31,599.22,3.23,0000 0000 0000 0000 000000
2018-04-10 01:31:18,0.06,0.18,0.00,24.91,28.41,31.36,14.02,48.28,1028.13,2021.96,3332.19,3034.22,3488.70,600.20,599.18,3.29,0000 0000 0000 0000 000000
2018-04-10 01:36:19,0.05,0.19,0.00,24.98,28.44,31.38,14.07,48.23,1028.27,2021.83,3330.82,3033.18,3487.35,600.01,598.85,3.34,0000 0000 0000 0000 000000
2018-04-10 01:41:20,0.02,0.19,0.00,25.05,28.47,31.41,14.09,48.20,1028.33,2021.27,3329.35,3032.04,3485.91,600.08,598.78,3.39,0000 0000 0000 0000 000000
2018-04-10 01:46:22,0.07,0.19,0.00,25.07,28.51,31.44,14.09,48.31,1028.33,2021.04,3327.68,3030.82,3484.54,599.96,598.48,3.44,0000 0000 0000 0000 000000
2018-04-10 01:51:23,0.08,0.19,0.00,25.11,28.54,31.48,13.99,48.15,1028.33,2021.01,3326.00,3029.57,3482.93,600.24,598.95,3.49,0000 0000 0000 0000 000000
2018-04-10 01:56:24,0.07,0.20,0.00,25.16,28.58,31.51,14.04,48.19,1028.33,2021.00,3324.33,3028.24,3481.30,600.22,598.75,3.54,0000 0000 0000 0000 000000
2018-04-10 02:01:26,0.07,0.20,0.00,25.25,28.61,31.54,13.97,48.08,1028.35,2020.99,3322.65,3027.06,3479.92,599.90,598.16,3.59,0000 0000 0000 0000 000000
2018-04-10 02:06:27,0.06,0.21,0.00,25.28,28.65,31.57,13.91,48.13,1028.35,2020.98,3321.39,3026.12,3478.77,599.85,598.18,3.64,0000 0000 0000 0000 000000
2018-04-10 02:11:28,0.03,0.21,0.00,25.31,28.68,31.62,14.02,48.15,1028.38,2020.78,3320.13,3025.14,3477.62,600.07,598.33,3.69,0000 0000 0000 0000 000000
2018-04-10 02:16:30,0.02,0.21,0.00,25.37,28.72,31.66,14.05,48.04,1028.37,2020.36,3318.61,3024.10,3476.43,600.04,598.15,3.74,0000 0000 0000 0000 000000
2018-04-10 02:21:31,0.10,0.21,0.00,25.45,28.76,31.69,14.00,48.03,1028.38,2020.08,3316.39,3022.55,3474.59,600.07,597.97,3.79,0000 0000 0000 0000 000000
2018-04-10 02:26:33,0.11,0.22,0.00,25.49,28.79,31.73,14.02,47.89,1028.37,2020.01,3313.57,3020.55,3472.09,599.86,597.72,3.84,0000 0000 0000 0000 000000
2018-04-10 02:31:34,0.07,0.22,0.00,25.54,28.83,31.79,13.97,47.87,1028.51,2019.99,3311.87,3019.33,3470.62,600.12,597.97,3.89,0000 0000 0000 0000 000000
2018-04-10 02:36:35,0.05,0.23,0.00,25.61,28.87,31.82,13.93,47.77,1028.61,2019.96,3310.54,3018.27,3469.36,599.94,597.56,3.94,0000 0000 0000 0000 000000
2018-04-10 02:41:36,0.04,0.23,0.00,25.66,28.91,31.86,14.05,47.83,1028.70,2019.84,3309.12,3017.24,3468.07,599.98,597.54,3.99,0000 0000 0000 0000 000000
2018-04-10 02:46:37,0.01,0.23,0.00,25.71,28.94,31.91,13.94,47.75,1028.76,2019.23,3307.67,3016.22,3466.78,599.96,597.65,4.04,0000 0000 0000 0000 000000
2018-04-10 02:51:39,0.05,0.23,0.00,25.77,28.98,31.95,13.96,47.85,1028.80,2019.03,3306.27,3015.17,3465.52,599.87,597.50,4.09,0000 0000 0000 0000 000000
2018-04-10 02:56:40,0.06,0.24,0.00,25.86,29.01,31.98,13.89,47.73,1028.81,2019.00,3304.77,3014.09,3464.29,599.90,597.28,4.14,0000 0000 0000 0000 000000
2018-04-10 03:01:41,0.06,0.24,0.00,25.88,29.05,32.03,13.90,47.76,1028.82,2019.00,3303.43,3013.03,3462.96,600.08,597.41,4.19,0000 0000 0000 0000 000000
2018-04-10 03:06:43,0.06,0.24,0.00,25.94,29.09,32.08,13.94,47.75,1028.82,2018.97,3301.93,3011.98,3461.71,600.08,597.38,4.24,0000 0000 0000 0000 000000
2018-04-10 03:11:44,0.06,0.25,0.00,26.03,29.13,32.12,13.94,47.69,1028.83,2018.86,3300.44,3010.88,3460.49,600.00,597.02,4.29,0000 0000 0000 0000 000000
2018-04-10 03:16:45,0.02,0.25,0.00,26.05,29.17,32.16,13.95,47.82,1028.84,2018.34,3298.77,3009.64,3459.03,600.16,597.37,4.34,0000 0000 0000 0000 000000
2018-04-10 03:21:47,0.06,0.25,0.00,26.10,29.21,32.22,13.93,47.87,1028.84,2018.02,3297.10,3008.41,3457.47,599.89,596.82,4.39,0000 0000 0000 0000 000000
2018-04-10 03:26:48,0.07,0.26,0.00,26.15,29.25,32.26,13.93,47.73,1028.86,2018.00,3295.42,3007.25,3455.95,600.20,597.06,4.44,0000 0000 0000 0000 000000
2018-04-10 03:31:49,0.07,0.26,0.00,26.16,29.29,32.30,13.90,47.74,1028.85,2017.99,3293.67,3006.10,3454.63,600.08,596.93,4.49,0000 0000 0000 0000 000000
2018-04-10 03:36:50,0.07,0.26,0.00,26.19,29.34,32.36,13.88,47.71,1028.95,2017.96,3291.99,3004.86,3453.22,600.05,596.80,4.54,0000 0000 0000 0000 000000
2018-04-10 03:41:52,0.05,0.27,0.00,26.26,29.38,32.39,13.96,47.67,1029.10,2017.84,3290.60,3003.77,3451.84,600.26,597.04,4.59,0000 0000 0000 0000 000000
2018-04-10 03:46:53,0.03,0.27,0.00,26.27,29.41,32.44,13.99,47.74,1029.27,2017.37,3289.09,3002.70,3450.54,600.49,597.39,4.64,0000 0000 0000 0000 000000
2018-04-10 03:51:55,0.05,0.27,0.00,26.29,29.46,32.48,13.93,47.73,1029.27,2017.12,3287.66,3001.65,3449.32,600.25,596.98,4.69,0000 0000 0000 0000 000000
2018-04-10 03:56:56,0.07,0.27,0.00,26.37,29.49,32.52,13.95,47.81,1029.23,2017.02,3285.98,3000.55,3447.91,599.86,596.45,4.74,0000 0000 0000 0000 000000
2018-04-10 04:01:57,0.09,0.28,0.00,26.38,29.52,32.57,13.86,47.73,1029.30,2017.00,3284.03,2999.05,3446.26,599.68,596.35,4.79,0000 0000 0000 0000 000000
2018-04-10 04:06:58,0.10,0.28,0.00,26.41,29.55,32.56,13.98,47.71,1029.31,2017.00,3281.91,2997.53,3444.53,600.03,596.64,4.84,0000 0000 0000 0000 000000
2018-04-10 04:11:59,0.11,0.29,0.00,26.43,29.57,32.63,13.87,47.65,1029.31,2017.00,3279.56,2995.76,3442.52,599.69,596.19,4.89,0000 0000 0000 0000 000000
2018-04-10 04:17:01,0.11,0.30,0.00,26.47,29.59,32.68,14.00,47.77,1029.30,2016.97,3277.05,2994.01,3440.47,600.03,596.58,4.94,0000 0000 0000 0000 000000
2018-04-10 04:22:02,0.13,0.30,0.00,26.45,29.60,32.73,13.91,47.87,1029.30,2016.97,3274.26,2992.09,3438.32,599.83,596.32,4.99,0000 0000 0000 0000 000000
2018-04-10 04:27:04,0.09,0.31,0.00,26.42,29.60,32.73,13.97,47.89,1029.29,2016.98,3272.10,2990.40,3436.33,599.98,596.52,5.04,0000 0000 0000 0000 000000
2018-04-10 04:32:05,0.08,0.31,0.00,26.49,29.60,32.59,13.95,47.89,1029.23,2016.97,3270.34,2989.15,3434.76,599.68,596.14,5.09,0000 0000 0000 0000 000000
2018-04-10 04:37:07,0.09,0.32,0.00,26.44,29.60,32.51,13.91,47.92,1029.09,2016.96,3268.44,2987.79,3433.28,600.10,596.52,5.14,0000 0000 0000 0000 000000
2018-04-10 04:42:08,0.09,0.32,0.00,26.40,29.57,32.38,13.89,48.04,1028.99,2016.97,3266.46,2986.47,3431.65,599.92,596.35,5.19,0000 0000 0000 0000 000000
2018-04-10 04:47:09,0.08,0.33,0.00,26.52,29.57,32.27,13.98,48.18,1028.89,2016.98,3264.53,2985.11,3430.11,600.22,596.37,5.24,0000 0000 0000 0000 000000
2018-04-10 04:52:10,0.08,0.33,0.00,26.45,29.55,32.22,13.97,48.22,1028.85,2016.99,3262.80,2983.80,3428.60,599.95,596.22,5.29,0000 0000 0000 0000 000000
2018-04-10 04:57:11,0.08,0.34,0.00,26.45,29.53,32.23,13.92,48.17,1028.84,2016.99,3261.22,2982.59,3427.00,599.75,596.05,5.34,0000 0000 0000 0000 000000
2018-04-10 05:02:13,0.08,0.34,0.00,26.53,29.51,32.01,13.87,48.12,1028.83,2016.99,3259.51,2981.40,3425.52,600.15,596.22,5.39,0000 0000 0000 0000 000000
2018-04-10 05:07:14,0.07,0.34,0.00,26.46,29.49,32.09,13.86,48.08,1028.83,2016.99,3257.73,2980.17,3424.13,599.94,596.12,5.44,0000 0000 0000 0000 000000
2018-04-10 05:12:15,0.07,0.35,0.00,26.44,29.46,32.06,13.89,48.08,1028.83,2016.99,3256.23,2979.14,3422.78,600.00,596.14,5.49,0000 0000 0000 0000 000000
2018-04-10 05:17:16,0.07,0.35,0.00,26.58,29.43,31.91,13.85,48.08,1028.83,2016.99,3254.62,2978.02,3421.50,600.27,596.32,5.54,0000 0000 0000 0000 000000
2018-04-10 05:22:18,0.06,0.36,0.00,26.51,29.41,31.95,13.93,48.09,1028.83,2017.00,3253.01,2976.99,3420.39,600.25,596.37,5.60,0000 0000 0000 0000 000000
2018-04-10 05:27:19,0.08,0.36,0.00,26.50,29.38,31.94,13.84,48.06,1028.78,2017.01,3251.34,2975.86,3418.99,599.82,596.00,5.65,0000 0000 0000 0000 000000
2018-04-10 05:32:20,0.06,0.36,0.00,26.63,29.35,31.86,13.92,48.03,1028.62,2017.04,3249.89,2974.90,3417.78,600.28,596.04,5.70,0000 0000 0000 0000 000000
2018-04-10 05:37:22,0.07,0.37,0.00,26.57,29.32,31.94,13.86,47.99,1028.42,2017.17,3248.59,2974.03,3416.74,600.24,596.02,5.75,0000 0000 0000 0000 000000
2018-04-10 05:42:23,0.07,0.37,0.00,26.34,29.29,31.94,13.87,48.02,1028.62,2017.28,3247.39,2973.14,3415.73,600.02,596.35,5.80,0000 0000 0000 0000 000000
2018-04-10 05:47:24,0.08,0.37,0.00,26.21,29.26,31.96,13.87,48.11,1028.81,2017.42,3245.96,2972.27,3414.73,600.05,596.75,5.85,0000 0000 0000 0000 000000
2018-04-10 05:52:25,0.10,0.38,0.00,26.15,29.22,31.96,13.90,48.17,1028.81,2017.89,3244.65,2971.52,3413.82,599.50,596.40,5.90,0000 0000 0000 0000 000000
2018-04-10 05:57:26,0.05,0.38,0.00,26.11,29.19,31.96,13.94,48.07,1028.82,2017.98,3243.38,2970.71,3412.82,600.52,597.48,5.95,0000 0000 0000 0000 000000
2018-04-10 06:02:28,0.06,0.39,0.00,26.17,29.16,31.97,13.98,48.02,1028.82,2017.99,3241.82,2969.79,3411.82,600.59,597.39,6.00,0000 0000 0000 0000 000000
2018-04-10 06:07:29,0.07,0.39,0.00,26.14,29.13,31.93,13.96,48.13,1028.82,2017.99,3240.34,2968.79,3410.62,600.23,597.09,6.05,0000 0000 0000 0000 000000
2018-04-10 06:12:30,0.07,0.39,0.00,26.12,29.11,31.91,13.95,48.01,1028.82,2018.03,3238.80,2967.91,3409.55,600.41,597.16,6.10,0000 0000 0000 0000 000000
2018-04-10 06:17:32,0.10,0.40,0.00,26.22,29.10,31.89,13.97,48.06,1028.82,2018.18,3237.23,2966.80,3408.38,600.09,596.69,6.15,0000 0000 0000 0000 000000
2018-04-10 06:22:33,0.09,0.40,0.00,26.20,29.07,31.89,13.94,48.08,1028.82,2018.38,3235.56,2965.63,3406.91,600.43,597.18,6.20,0000 0000 0000 0000 000000
2018-04-10 06:27:34,0.10,0.41,0.00,26.20,29.06,31.89,13.89,48.13,1028.82,2018.69,3233.92,2964.55,3405.63,599.83,596.55,6.25,0000 0000 0000 0000 000000
2018-04-10 06:32:35,0.08,0.41,0.00,26.32,29.05,31.90,13.96,48.12,1028.82,2018.82,3232.24,2963.47,3404.35,599.75,596.22,6.30,0000 0000 0000 0000 000000
2018-04-10 06:37:36,0.08,0.42,0.00,26.32,29.04,31.91,13.91,48.19,1028.82,2018.88,3230.53,2962.28,3402.96,599.70,596.19,6.35,0000 0000 0000 0000 000000
2018-04-10 06:42:37,0.08,0.42,0.00,26.30,29.02,31.90,13.87,48.13,1028.82,2018.95,3228.91,2961.27,3401.68,599.66,596.21,6.40,0000 0000 0000 0000 000000
2018-04-10 06:47:38,0.07,0.43,0.00,26.36,29.02,31.90,13.82,48.25,1028.82,2018.98,3227.22,2960.06,3400.38,599.34,595.79,6.45,0000 0000 0000 0000 000000
2018-04-10 06:52:40,0.09,0.43,0.00,26.44,29.02,31.77,13.91,48.23,1028.82,2018.97,3225.42,2958.83,3398.92,600.01,596.27,6.50,0000 0000 0000 0000 000000
2018-04-10 06:57:41,0.09,0.43,0.00,26.43,29.02,31.75,13.88,48.22,1028.83,2018.97,3223.44,2957.58,3397.47,600.00,596.23,6.55,0000 0000 0000 0000 000000
2018-04-10 07:02:42,0.09,0.44,0.00,26.44,29.02,31.76,13.97,48.31,1028.84,2018.96,3221.30,2956.19,3395.84,600.03,596.25,6.60,0000 0000 0000 0000 000000
2018-04-10 07:07:44,0.09,0.44,0.00,26.55,29.02,31.75,13.95,48.38,1028.85,2018.97,3219.29,2954.77,3394.23,600.08,596.09,6.65,0000 0000 0000 0000 000000
2018-04-10 07:12:45,0.08,0.45,0.00,26.56,29.02,31.75,13.90,48.31,1028.88,2018.98,3217.53,2953.57,3392.76,599.83,595.69,6.70,0000 0000 0000 0000 000000
2018-04-10 07:17:46,0.07,0.45,0.00,26.56,29.02,31.75,13.84,48.20,1028.99,2018.96,3215.94,2952.54,3391.54,599.54,595.70,6.75,0000 0000 0000 0000 000000
2018-04-10 07:22:47,0.06,0.45,0.00,26.60,29.02,31.77,13.92,48.05,1029.21,2018.97,3214.48,2951.56,3390.54,600.28,596.45,6.80,0000 0000 0000 0000 000000
2018-04-10 07:27:49,0.06,0.46,0.00,26.71,29.02,31.77,13.88,48.11,1029.28,2018.96,3213.03,2950.58,3389.41,600.12,596.05,6.85,0000 0000 0000 0000 000000
2018-04-10 07:32:50,0.06,0.46,0.00,26.72,29.02,31.78,13.89,48.09,1029.31,2018.91,3211.54,2949.53,3388.23,600.00,595.99,6.90,0000 0000 0000 0000 000000
2018-04-10 07:37:52,0.05,0.46,0.00,26.73,29.03,31.81,13.85,48.06,1029.31,2018.90,3210.25,2948.71,3387.12,600.14,596.10,6.95,0000 0000 0000 0000 000000
2018-04-10 07:42:53,0.05,0.47,0.00,26.76,29.04,31.82,13.87,48.02,1029.32,2018.81,3208.80,2947.76,3385.96,599.91,595.83,7.00,0000 0000 0000 0000 000000
2018-04-10 07:47:55,0.05,0.47,0.00,26.86,29.05,31.84,13.84,47.96,1029.32,2018.67,3207.39,2946.72,3384.76,600.01,595.77,7.05,0000 0000 0000 0000 000000
2018-04-10 07:52:56,0.06,0.47,0.00,26.86,29.05,31.87,13.81,47.91,1029.31,2018.52,3205.86,2945.70,3383.61,599.87,595.77,7.10,0000 0000 0000 0000 000000
2018-04-10 07:57:57,0.06,0.48,0.00,26.88,29.05,31.84,13.81,48.08,1029.32,2018.44,3204.34,2944.65,3382.40,599.67,595.34,7.15,0000 0000 0000 0000 000000
2018-04-10 08:02:58,0.05,0.48,0.00,26.93,29.07,31.91,13.78,47.94,1029.34,2018.34,3202.83,2943.76,3381.26,599.99,595.53,7.20,0000 0000 0000 0000 000000
2018-04-10 08:08:00,0.05,0.48,0.00,27.01,29.08,31.94,13.88,47.91,1029.43,2018.13,3201.47,2942.78,3379.99,599.99,595.45,7.25,0000 0000 0000 0000 000000
2018-04-10 08:13:01,0.07,0.49,0.00,27.01,29.10,31.93,13.87,47.97,1029.76,2018.04,3199.87,2941.72,3378.76,599.92,595.55,7.30,0000 0000 0000 0000 000000
2018-04-10 08:18:03,0.07,0.49,0.00,27.02,29.11,31.96,13.88,47.85,1029.79,2018.02,3198.46,2940.65,3377.54,600.04,595.75,7.35,0000 0000 0000 0000 000000
2018-04-10 08:23:04,0.07,0.49,0.00,27.04,29.12,31.99,13.91,47.95,1029.79,2018.01,3196.89,2939.65,3376.36,600.04,595.66,7.40,0000 0000 0000 0000 000000
2018-04-10 08:28:05,0.08,0.50,0.00,27.11,29.15,32.02,13.81,47.88,1029.80,2018.00,3195.23,2938.39,3374.89,599.40,594.84,7.45,0000 0000 0000 0000 000000
2018-04-10 08:33:07,0.07,0.50,0.00,27.11,29.16,32.06,13.83,47.86,1029.80,2018.00,3193.69,2937.27,3373.61,600.35,595.78,7.50,0000 0000 0000 0000 000000
2018-04-10 08:38:08,0.06,0.50,0.00,27.10,29.18,32.08,13.85,47.81,1029.80,2018.00,3192.31,2936.35,3372.47,599.97,595.50,7.55,0000 0000 0000 0000 000000
2018-04-10 08:43:09,0.06,0.51,0.00,27.08,29.20,32.13,13.89,47.73,1029.80,2018.00,3190.87,2935.44,3371.39,599.88,595.38,7.60,0000 0000 0000 0000 000000
2018-04-10 08:48:10,0.09,0.51,0.00,27.13,29.22,32.15,13.90,47.73,1029.80,2017.99,3189.04,2934.11,3369.85,600.13,595.62,7.65,0000 0000 0000 0000 000000
2018-04-10 08:53:12,0.13,0.52,0.00,27.16,29.25,32.19,13.80,47.73,1029.80,2017.88,3186.55,2932.23,3367.68,599.88,595.31,7.70,0000 0000 0000 0000 000000
2018-04-10 08:58:13,0.24,0.53,0.00,27.12,29.26,32.21,13.86,47.69,1029.80,2017.60,3181.44,2928.64,3363.45,600.14,595.60,7.75,0000 0000 0000 0000 000000
2018-04-10 09:03:15,0.31,0.54,0.00,27.12,29.29,32.22,13.92,47.75,1029.80,2017.15,3174.79,2923.93,3358.01,600.13,595.64,7.80,0000 0000 0000 0000 000000
2018-04-10 09:08:16,0.65,0.57,0.00,27.12,29.30,32.24,13.86,47.73,1029.80,2017.02,3163.58,2915.95,3348.76,600.06,595.56,7.85,0000 0000 0000 0000 000000
2018-04-10 09:13:17,0.99,0.61,0.00,27.19,29.32,32.28,13.88,47.74,1029.81,2017.00,3145.07,2902.64,3333.34,600.39,595.74,7.90,0000 0000 0000 0000 000000
2018-04-10 09:18:19,1.31,0.67,0.00,27.17,29.35,32.28,13.81,47.83,1029.82,2017.00,3121.19,2885.33,3313.38,599.92,595.37,7.96,0000 0000 0000 0000 000000
2018-04-10 09:23:20,1.28,0.74,0.00,27.15,29.36,32.35,13.91,47.83,1029.96,2017.00,3094.76,2866.34,3291.15,600.30,595.70,8.01,0000 0000 0000 0000 000000
2018-04-10 09:28:21,0.27,0.77,0.23,27.13,29.38,32.33,13.90,47.95,1030.21,2016.99,3086.37,2860.24,3284.14,599.96,595.64,8.06,0000 0000 0000 0000 000000
2018-04-10 09:33:22,0.05,0.78,1.00,27.13,29.40,32.35,13.85,47.91,1030.29,2016.97,3084.40,2858.90,3282.59,600.15,595.89,8.11,0000 0000 0000 0000 000000
2018-04-10 09:38:23,0.06,0.78,1.00,27.18,29.41,32.37,13.86,47.92,1030.29,2016.95,3083.27,2857.94,3281.54,599.85,595.42,8.16,0000 0000 0000 0000 000000
2018-04-10 09:43:25,0.07,0.78,1.00,27.15,29.42,32.39,13.85,47.85,1030.29,2016.84,3081.66,2856.88,3280.22,599.96,595.54,8.21,0000 0000 0000 0000 000000
2018-04-10 09:48:26,0.04,0.79,1.00,27.13,29.44,32.37,13.87,47.88,1030.29,2016.70,3080.25,2855.92,3279.08,600.31,596.11,8.26,0000 0000 0000 0000 000000
2018-04-10 09:53:28,0.04,0.79,1.00,27.09,29.45,32.38,13.82,47.83,1030.29,2016.36,3078.90,2854.99,3278.02,599.99,595.82,8.31,0000 0000 0000 0000 000000
2018-04-10 09:58:29,0.04,0.79,0.73,27.09,29.45,32.38,13.90,48.03,1030.29,2016.12,3077.77,2854.10,3277.07,600.12,595.93,8.36,0000 0000 0000 0000 000000
2018-04-10 10:03:30,0.26,0.80,0.00,27.12,29.47,32.44,13.82,47.95,1030.29,2016.05,3073.97,2851.46,3273.84,599.88,595.67,8.41,0000 0000 0000 0000 000000
2018-04-10 10:08:32,0.26,0.81,0.00,27.10,29.47,32.44,13.93,47.94,1030.29,2016.04,3068.34,2847.29,3268.96,599.95,595.76,8.46,0000 0000 0000 0000 000000
2018-04-10 10:13:33,0.20,0.82,0.00,27.07,29.48,32.42,13.81,47.90,1030.29,2016.01,3064.49,2844.50,3265.66,599.68,595.56,8.51,0000 0000 0000 0000 000000
2018-04-10 10:18:34,0.21,0.83,0.00,27.03,29.50,32.44,13.89,48.01,1030.28,2016.00,3060.27,2841.52,3262.39,599.80,595.66,8.56,0000 0000 0000 0000 000000
2018-04-10 10:23:36,0.24,0.84,0.00,27.05,29.50,32.45,13.85,47.91,1030.27,2016.00,3055.93,2838.35,3258.71,600.28,596.22,8.61,0000 0000 0000 0000 000000
2018-04-10 10:28:37,0.42,0.86,0.00,27.03,29.51,32.44,13.88,47.96,1030.25,2016.00,3048.68,2833.05,3252.36,600.02,595.93,8.66,0000 0000 0000 0000 000000
2018-04-10 10:33:38,0.50,0.89,0.00,27.00,29.52,32.46,13.86,48.04,1030.27,2015.98,3039.81,2826.54,3244.47,599.78,595.74,8.71,0000 0000 0000 0000 000000
2018-04-10 10:38:39,0.46,0.91,0.00,26.95,29.52,32.47,13.87,48.03,1030.28,2015.97,3030.71,2819.96,3236.49,599.69,595.82,8.76,0000 0000 0000 0000 000000
2018-04-10 10:43:40,0.28,0.93,0.00,26.93,29.52,32.48,13.86,48.08,1030.29,2015.96,3024.60,2815.63,3231.39,600.11,596.24,8.81,0000 0000 0000 0000 000000
2018-04-10 10:48:42,0.35,0.94,0.00,26.94,29.52,32.48,13.83,47.99,1030.29,2015.96,3018.56,2811.29,3226.20,600.01,596.03,8.86,0000 0000 0000 0000 000000
2018-04-10 10:53:43,0.55,0.97,0.00,26.88,29.52,32.48,13.93,47.98,1030.29,2015.96,3009.42,2804.49,3217.98,600.18,596.37,8.91,0000 0000 0000 0000 000000
2018-04-10 10:58:44,0.72,1.00,0.00,26.82,29.52,32.47,13.94,48.05,1030.29,2015.89,2996.97,2795.17,3206.71,600.32,596.62,8.96,0000 0000 0000 0000 000000
2018-04-10 11:03:45,0.70,1.04,0.00,26.77,29.52,32.47,13.85,48.04,1030.29,2015.75,2984.05,2785.40,3194.90,600.03,596.54,9.01,0000 0000 0000 0000 000000
2018-04-10 11:08:46,0.68,1.08,0.00,26.74,29.52,32.47,13.88,48.01,1030.29,2015.65,2971.83,2776.32,3183.93,600.16,596.68,9.06,0000 0000 0000 0000 000000
2018-04-10 11:13:48,0.62,1.11,0.00,26.69,29.50,32.51,13.95,48.23,1030.29,2015.55,2960.29,2767.68,3173.47,600.27,596.92,9.11,0000 0000 0000 0000 000000
2018-04-10 11:18:49,0.57,1.14,0.00,26.62,29.50,32.51,14.00,48.15,1030.29,2015.45,2949.74,2759.81,3164.04,600.45,597.10,9.16,0000 0000 0000 0000 000000
2018-04-10 11:23:51,0.30,1.16,0.00,26.60,29.47,32.56,13.88,48.14,1030.29,2015.76,2944.02,2755.56,3159.02,600.01,596.70,9.21,0000 0000 0000 0000 000000
2018-04-10 11:28:52,0.40,1.18,0.33,26.56,29.46,32.62,14.03,48.13,1030.28,2015.92,2937.78,2750.84,3153.20,600.10,596.97,9.26,0000 0000 0000 0000 000000
2018-04-10 11:33:53,0.35,1.19,1.00,26.50,29.45,32.62,13.94,48.23,1030.24,2015.92,2931.26,2746.05,3147.33,600.13,597.04,9.31,0000 0000 0000 0000 000000
2018-04-10 11:38:54,0.40,1.21,1.00,26.46,29.42,32.58,14.00,48.13,1030.21,2015.94,2924.79,2741.13,3141.39,600.10,597.16,9.36,0000 0000 0000 0000 000000
2018-04-10 11:43:55,0.47,1.23,1.00,26.45,29.40,32.54,13.96,48.22,1030.23,2015.98,2916.68,2735.12,3134.39,600.08,597.23,9.41,0000 0000 0000 0000 000000
2018-04-10 11:48:57,0.52,1.26,1.00,26.37,29.38,32.49,13.97,48.23,1030.05,2015.96,2907.91,2728.53,3126.45,600.06,597.17,9.46,0000 0000 0000 0000 000000
2018-04-10 11:53:58,0.57,1.29,1.00,26.32,29.36,32.43,13.92,48.12,1030.17,2015.98,2898.20,2721.43,3117.85,599.98,597.33,9.51,0000 0000 0000 0000 000000
2018-04-10 11:59:00,0.57,1.32,0.63,26.31,29.33,32.38,13.92,48.19,1030.17,2015.99,2888.31,2714.18,3109.22,599.94,597.23,9.56,0000 0000 0000 0000 000000
2018-04-10 12:04:01,0.52,1.34,0.00,26.25,29.30,32.36,14.01,48.21,1030.23,2015.99,2879.09,2707.41,3101.11,600.15,597.68,9.61,0000 0000 0000 0000 000000
2018-04-10 12:09:02,0.48,1.37,0.00,26.19,29.27,32.31,13.99,48.21,1030.26,2015.99,2870.81,2701.31,3093.72,600.15,597.74,9.66,0000 0000 0000 0000 000000
2018-04-10 12:14:03,0.44,1.39,0.00,26.17,29.24,32.27,13.98,48.26,1030.26,2015.99,2862.94,2695.62,3086.97,600.26,597.89,9.71,0000 0000 0000 0000 000000
2018-04-10 12:19:05,0.40,1.41,0.00,26.13,29.21,32.25,13.96,48.26,1030.29,2016.00,2855.84,2690.47,3080.96,600.15,597.97,9.76,0000 0000 0000 0000 000000
2018-04-10 12:24:06,0.31,1.43,0.00,26.07,29.17,32.21,13.91,48.31,1030.29,2016.14,2850.17,2686.46,3076.47,599.52,597.40,9.81,0000 0000 0000 0000 000000
2018-04-10 12:29:07,0.28,1.45,0.00,26.01,29.14,32.17,14.01,48.42,1030.24,2016.65,2845.83,2683.22,3072.59,600.29,598.32,9.86,0000 0000 0000 0000 000000
2018-04-10 12:34:09,0.39,1.46,0.00,26.01,29.11,32.15,14.05,48.47,1030.19,2016.75,2839.99,2678.99,3067.72,600.23,598.15,9.91,0000 0000 0000 0000 000000
2018-04-10 12:39:10,0.34,1.48,0.00,25.96,29.07,32.14,14.04,48.45,1030.23,2016.96,2833.93,2674.60,3062.67,600.52,598.44,9.96,0000 0000 0000 0000 000000
2018-04-10 12:44:11,0.26,1.50,0.00,25.87,29.04,32.09,14.00,48.46,1030.28,2016.99,2829.03,2671.15,3058.80,599.95,598.15,10.01,0000 0000 0000 0000 000000
2018-04-10 12:49:12,0.25,1.51,0.00,25.87,29.01,32.04,13.94,48.40,1030.24,2016.99,2824.82,2668.06,3055.17,599.79,598.01,10.06,0000 0000 0000 0000 000000
2018-04-10 12:54:13,0.26,1.52,0.00,25.81,28.97,32.00,13.95,48.46,1030.27,2017.00,2820.51,2664.81,3051.26,599.88,598.24,10.11,0000 0000 0000 0000 000000
2018-04-10 12:59:15,0.34,1.54,0.00,25.75,28.93,31.97,14.00,48.53,1030.29,2017.01,2815.27,2660.92,3046.76,600.08,598.41,10.16,0000 0000 0000 0000 000000